| DS18B20 | SHTC3 | ||||||
|---|---|---|---|---|---|---|---|
| ID | Date d/m/Y & Time | data1 สูง | data2 ต่ำ | data3 นอก | temp pcb | hum pcb | Time |
| 2833 | 15/03/2026 23:16:25 | 28.3  | 28.4  | 27.4  | 28.2  | 72.7  | 23:16 |
| 2832 | 15/03/2026 23:11:43 | 28.3  | 28.4  | 27.4  | 28.2  | 72.6  | 23:11 |
| 2831 | 15/03/2026 23:07:01 | 28.4  | 28.4  | 27.4  | 28.2  | 72.8  | 23:07 |
| 2830 | 15/03/2026 23:02:19 | 28.4  | 28.4  | 27.4  | 28.2  | 72.6  | 23:02 |
| 2829 | 15/03/2026 22:57:38 | 28.4  | 28.5  | 27.4  | 28.4  | 72.6  | 22:57 |
| 2828 | 15/03/2026 22:52:54 | 28.4  | 28.5  | 27.4  | 28.4  | 72.7  | 22:52 |
| 2827 | 15/03/2026 22:48:12 | 28.4  | 28.5  | 27.4  | 28.5  | 72.7  | 22:48 |
| 2826 | 15/03/2026 22:43:31 | 28.4  | 28.5  | 27.4  | 28.6  | 72.7  | 22:43 |
| 2825 | 15/03/2026 22:38:48 | 28.4  | 28.6  | 27.4  | 28.4  | 72.7  | 22:38 |
| 2824 | 15/03/2026 22:34:06 | 28.5  | 28.6  | 27.5  | 28.5  | 72.8  | 22:34 |
| 2823 | 15/03/2026 22:29:25 | 28.5  | 28.6  | 27.5  | 28.4  | 72.8  | 22:29 |
| 2822 | 15/03/2026 22:24:41 | 28.5  | 28.6  | 27.5  | 28.6  | 72.6  | 22:24 |
| 2821 | 15/03/2026 22:19:59 | 28.6  | 28.6  | 27.5  | 28.6  | 72.7  | 22:19 |
| 2820 | 15/03/2026 22:15:17 | 28.6  | 28.7  | 27.5  | 28.6  | 72.6  | 22:15 |
| 2819 | 15/03/2026 22:10:35 | 28.6  | 28.7  | 27.5  | 28.6  | 72.7  | 22:10 |
| 2818 | 15/03/2026 22:05:54 | 28.6  | 28.7  | 27.5  | 28.6  | 72.6  | 22:05 |
| 2817 | 15/03/2026 22:01:13 | 28.6  | 28.8  | 27.5  | 28.7  | 72.6  | 22:01 |
| 2816 | 15/03/2026 21:56:31 | 28.6  | 28.8  | 27.6  | 28.6  | 72.6  | 21:56 |
| 2815 | 15/03/2026 21:51:49 | 28.7  | 28.8  | 27.6  | 28.6  | 72.7  | 21:51 |
| 2814 | 15/03/2026 21:47:09 | 28.7  | 28.8  | 27.7  | 28.7  | 72.6  | 21:47 |
| 2813 | 15/03/2026 21:42:27 | 28.7  | 28.8  | 27.7  | 28.7  | 72.6  | 21:42 |
| 2812 | 15/03/2026 21:37:46 | 28.8  | 28.9  | 27.7  | 28.7  | 72.7  | 21:37 |
| 2811 | 15/03/2026 21:33:05 | 28.8  | 28.9  | 27.7  | 28.7  | 72.7  | 21:33 |
| 2810 | 15/03/2026 21:28:23 | 28.8  | 28.9  | 27.7  | 28.6  | 72.6  | 21:28 |